TimeEDT,TemperatureF,Dew PointF,Humidity,Sea Level PressureIn,VisibilityMPH,Wind Direction,Wind SpeedMPH,Gust SpeedMPH,PrecipitationIn,Events,Conditions,WindDirDegrees,DateUTC
12:54 AM,81.0,72.0,74,30.13,10.0,SW,9.2,18.4,N/A,,Clear,220,2013-07-05 04:54:00
1:54 AM,80.1,71.1,74,30.13,10.0,SW,4.6,-,N/A,,Clear,230,2013-07-05 05:54:00
2:54 AM,78.1,71.1,79,30.13,10.0,SW,4.6,-,N/A,,Clear,230,2013-07-05 06:54:00
3:54 AM,77.0,71.1,82,30.14,10.0,Calm,Calm,-,N/A,,Clear,0,2013-07-05 07:54:00
4:54 AM,77.0,71.1,82,30.14,10.0,SW,6.9,-,N/A,,Clear,230,2013-07-05 08:54:00
5:54 AM,77.0,71.1,82,30.15,10.0,SW,6.9,-,N/A,,Clear,230,2013-07-05 09:54:00
6:54 AM,79.0,71.1,77,30.16,10.0,WSW,9.2,-,N/A,,Clear,240,2013-07-05 10:54:00
7:54 AM,82.0,72.0,71,30.17,10.0,WSW,8.1,-,N/A,,Clear,250,2013-07-05 11:54:00
8:54 AM,84.0,72.0,67,30.17,10.0,WSW,6.9,-,N/A,,Clear,240,2013-07-05 12:54:00
9:54 AM,87.1,72.0,61,30.15,10.0,SW,6.9,-,N/A,,Clear,230,2013-07-05 13:54:00
10:54 AM,89.1,72.0,57,30.14,10.0,SW,10.4,-,N/A,,Clear,230,2013-07-05 14:54:00
11:54 AM,91.0,71.1,52,30.13,10.0,Variable,5.8,-,N/A,,Partly Cloudy,0,2013-07-05 15:54:00
12:54 PM,91.9,71.1,50,30.12,10.0,West,9.2,-,N/A,,Partly Cloudy,280,2013-07-05 16:54:00
1:54 PM,93.0,71.1,49,30.10,10.0,WSW,8.1,-,N/A,,Partly Cloudy,240,2013-07-05 17:54:00
2:54 PM,93.9,70.0,46,30.09,10.0,SW,10.4,19.6,N/A,,Clear,220,2013-07-05 18:54:00
3:54 PM,93.0,70.0,47,30.06,10.0,SSW,10.4,-,N/A,,Clear,210,2013-07-05 19:54:00
4:54 PM,93.0,70.0,47,30.06,10.0,SW,9.2,17.3,N/A,,Clear,230,2013-07-05 20:54:00
5:54 PM,93.0,69.1,45,30.05,10.0,SW,13.8,-,N/A,,Clear,230,2013-07-05 21:54:00
6:54 PM,91.0,70.0,50,30.04,10.0,SW,6.9,-,N/A,,Clear,230,2013-07-05 22:54:00
7:54 PM,88.0,70.0,55,30.04,10.0,SSW,9.2,-,N/A,,Clear,210,2013-07-05 23:54:00
8:54 PM,87.1,69.1,55,30.04,10.0,SW,6.9,-,N/A,,Clear,220,2013-07-06 00:54:00
9:54 PM,84.0,71.1,65,30.07,10.0,SW,6.9,-,N/A,,Clear,220,2013-07-06 01:54:00
10:54 PM,82.9,71.1,67,30.06,10.0,SW,6.9,-,N/A,,Clear,220,2013-07-06 02:54:00
11:54 PM,82.9,71.1,67,30.07,10.0,SW,6.9,-,N/A,,Clear,230,2013-07-06 03:54:00